This is the latest recevied weather packets stored in our database for station/object W6MAF. If no packets are shown the sender has not sent any weather packets the latest 10 day(s).
| Time | Temp. | Humidity | Pressure | Rain* | Wind** | Luminosity | Snow |
|---|---|---|---|---|---|---|---|
| 1777067833 | 20° C | 19% | - | 0 mm | 5.36 m/s, 224° | - | - |
| 1777067536 | 20.56° C | 19% | - | 0 mm | 3.58 m/s, 190° | - | - |
| 1777067238 | 20.56° C | 20% | - | 0 mm | 4.02 m/s, 204° | - | - |
| 1777066940 | 20.56° C | 19% | - | 0 mm | 3.58 m/s, 212° | - | - |
| 1777066643 | 20.56° C | 20% | - | 0 mm | 3.58 m/s, 204° | - | - |
| 1777066342 | 20.56° C | 20% | - | 0 mm | 3.58 m/s, 166° | - | - |
| 1777066044 | 20° C | 20% | - | 0 mm | 4.92 m/s, 214° | - | - |
| 1777065746 | 20° C | 20% | - | 0 mm | 3.58 m/s, 214° | - | - |
| 1777065449 | 20° C | 18% | - | 0 mm | 3.58 m/s, 211° | - | - |
| 1777064853 | 20° C | 20% | - | 0 mm | 4.92 m/s, 235° | - | - |
| 1777064552 | 20° C | 20% | - | 0 mm | 4.47 m/s, 214° | - | - |
| 1777064255 | 20° C | 20% | - | 0 mm | 4.02 m/s, 250° | - | - |
| 1777063958 | 20° C | 21% | - | 0 mm | 4.92 m/s, 201° | - | - |
| 1777063660 | 20° C | 23% | - | 0 mm | 4.47 m/s, 176° | - | - |
| 1777063362 | 19.44° C | 23% | - | 0 mm | 3.58 m/s, 219° | - | - |
| 1777063064 | 19.44° C | 24% | - | 0 mm | 4.92 m/s, 246° | - | - |
| 1777062763 | 19.44° C | 24% | - | 0 mm | 3.58 m/s, 160° | - | - |
| 1777062466 | 18.89° C | 25% | - | 0 mm | 4.02 m/s, 207° | - | - |
| 1777062168 | 18.89° C | 25% | - | 0 mm | 4.92 m/s, 195° | - | - |
| 1777061572 | 18.89° C | 26% | - | 0 mm | 5.36 m/s, 184° | - | - |
| 1777061275 | 18.33° C | 27% | - | 0 mm | 2.68 m/s, 184° | - | - |
| 1777060974 | 18.33° C | 27% | - | 0 mm | 4.02 m/s, 200° | - | - |
| 1777060676 | 18.33° C | 28% | - | 0 mm | 4.02 m/s, 235° | - | - |
| 1777060081 | 18.33° C | 28% | - | 0 mm | 3.13 m/s, 207° | - | - |
| 1777059783 | 18.33° C | 29% | - | 0 mm | 3.58 m/s, 221° | - | - |
* Rain latest hour (hover to see other rain measurements)
** Current wind speed in m/s (hover to see current wind gust speed)